TimeCDT,TemperatureF,Dew PointF,Humidity,Sea Level PressureIn,VisibilityMPH,Wind Direction,Wind SpeedMPH,Gust SpeedMPH,PrecipitationIn,Events,Conditions,WindDirDegrees,DateUTC
12:53 AM,77.0,63.0,62,30.01,10.0,SW,3.5,-,N/A,,Scattered Clouds,230,2013-07-03 05:53:00
1:53 AM,73.9,64.0,71,30.01,10.0,Calm,Calm,-,N/A,,Scattered Clouds,0,2013-07-03 06:53:00
2:53 AM,77.0,64.0,64,30.00,10.0,Calm,Calm,-,N/A,,Scattered Clouds,0,2013-07-03 07:53:00
3:53 AM,75.0,64.0,69,30.00,10.0,NNW,3.5,-,N/A,,Scattered Clouds,340,2013-07-03 08:53:00
4:53 AM,75.0,63.0,66,30.01,9.0,NNE,3.5,-,N/A,,Scattered Clouds,20,2013-07-03 09:53:00
5:53 AM,75.0,64.9,71,30.01,10.0,North,4.6,-,N/A,,Scattered Clouds,10,2013-07-03 10:53:00
6:53 AM,75.0,64.0,69,30.01,10.0,Calm,Calm,-,N/A,,Partly Cloudy,0,2013-07-03 11:53:00
7:53 AM,77.0,64.9,66,30.02,10.0,ENE,5.8,-,N/A,,Partly Cloudy,70,2013-07-03 12:53:00
8:53 AM,81.0,62.1,52,30.04,10.0,ENE,4.6,-,N/A,,Scattered Clouds,70,2013-07-03 13:53:00
9:53 AM,86.0,62.1,44,30.03,10.0,NE,6.9,-,N/A,,Scattered Clouds,50,2013-07-03 14:53:00
10:53 AM,88.0,60.1,39,30.03,10.0,Calm,Calm,-,N/A,,Scattered Clouds,0,2013-07-03 15:53:00
11:53 AM,91.0,60.1,35,30.02,10.0,NE,3.5,-,N/A,,Scattered Clouds,50,2013-07-03 16:53:00
12:53 PM,91.9,61.0,35,30.01,10.0,Variable,5.8,-,N/A,,Scattered Clouds,0,2013-07-03 17:53:00
1:53 PM,91.9,57.9,32,29.99,10.0,Calm,Calm,-,N/A,,Scattered Clouds,0,2013-07-03 18:53:00
2:53 PM,91.9,63.0,38,29.96,10.0,Variable,6.9,-,N/A,,Scattered Clouds,0,2013-07-03 19:53:00
3:53 PM,93.0,62.1,36,29.95,10.0,East,10.4,20.7,N/A,,Scattered Clouds,100,2013-07-03 20:53:00
4:53 PM,91.0,63.0,39,29.94,10.0,East,9.2,19.6,N/A,,Scattered Clouds,90,2013-07-03 21:53:00
5:53 PM,91.0,62.1,38,29.92,10.0,ESE,10.4,16.1,N/A,,Scattered Clouds,120,2013-07-03 22:53:00
6:53 PM,89.1,61.0,39,29.92,10.0,ESE,9.2,-,N/A,,Scattered Clouds,120,2013-07-03 23:53:00
7:53 PM,87.1,60.1,40,29.93,10.0,ESE,9.2,-,N/A,,Scattered Clouds,120,2013-07-04 00:53:00
8:53 PM,82.9,64.0,53,29.94,10.0,SSE,4.6,-,N/A,,Scattered Clouds,160,2013-07-04 01:53:00
9:53 PM,81.0,64.9,58,29.95,10.0,South,4.6,-,N/A,,Scattered Clouds,180,2013-07-04 02:53:00
10:53 PM,80.1,64.9,60,29.97,10.0,South,3.5,-,N/A,,Mostly Cloudy,190,2013-07-04 03:53:00
11:53 PM,78.1,66.0,66,29.97,10.0,SSW,3.5,-,N/A,,Scattered Clouds,210,2013-07-04 04:53:00